Regional Weather Roundup
Issued by NWS

Home | Current Version | Previous Version | Text Only | Print | Product List | Glossary Off
Versions: 1 2 3 4 5 6 7 8 9 10 11 12 13 14 15 16 17 18 19 20 21 22 23 24 25 26 27 28 29 30 31 32 33 34 35 36 37 38 39 40 41 42 43 44 45 46 47 48 49

000
ASUS45 KCYS 212010
RWRWY

WYOMING REGIONAL WEATHER ROUNDUP
NATIONAL WEATHER SERVICE CHEYENNE WY
100 PM MST SUN DEC 21 2014

NOTE:  "FAIR" INDICATES FEW OR NO CLOUDS BELOW 12,000 FEET
WITH NO SIGNIFICANT WEATHER AND/OR OBSTRUCTIONS TO VISIBILITY.

WYZ001-212100-
YELLOWSTONE NATIONAL PARK

CITY           SKY/WX    TMP DP  RH WIND       PRES   REMARKS
LK YELLOWSTONE   N/A     30  26  85 W17G30    29.59F WCI  18
W YELLOWSTONE  NOT AVBL

$$
WYZ002>013-054>058-071-098>099-212100-
NORTHERN WYOMING

CITY           SKY/WX    TMP DP  RH WIND       PRES   REMARKS
JACKSON        CLOUDY    36  34  93 SW21      29.62F BLWGSNOWWCI  24
CODY           FAIR      45  30  57 N6        29.45F
GREYBULL       PTSUNNY   36  26  67 S6        29.49F WCI  31
WORLAND        PTSUNNY   32  25  75 CALM      29.48F
SHERIDAN       FAIR      45  33  63 SE5       29.39F
BUFFALO        FAIR      44  32  62 SE7       29.42F
GILLETTE       CLOUDY    39  34  82 SW8       29.41F WCI  33
HULETT           N/A    N/A N/A N/A MISG        N/A
NEWCASTLE      FAIR      41  30  65 W5        29.45F

$$
WYZ014>020-022>026-101>103-212100-
CENTRAL WYOMING

CITY           SKY/WX    TMP DP  RH WIND       PRES   REMARKS
BIG PINEY      LGT SNOW  34  31  88 W16G25    29.66F FOG     WCI  24
PINEDALE       LGT SNOW  32  32 100 SW9       29.64F WCI  24
DUBOIS         NOT AVBL
LANDER         PTSUNNY   33  24  69 N6        29.50F WCI  28
RIVERTON       PTSUNNY   32  25  75 SW3       29.54F
CASPER         FAIR      39  30  70 SW16G24   29.49F WCI  30
DOUGLAS        CLOUDY    47  30  51 W29G39    29.46F

$$
WYZ021-027>030-104>119-212100-
SOUTHERN WYOMING

CITY           SKY/WX    TMP DP  RH WIND       PRES   REMARKS
EVANSTON       FOG       34  33  96 SW16      29.84S VSB 3/4 WCI  24
KEMMERER       CLOUDY    34  32  93 SW30      29.74F FOG     WCI  20
FORT BRIDGER   CLOUDY    39  35  86 W35G44    29.81F WCI  27
ROCK SPRINGS   FAIR      38  31  76 W39G47    29.70F WCI  24
DIXON          CLOUDY    33  30  88 S17G26    29.76F WCI  22
RAWLINS        CLOUDY    35  30  82 W21G29    29.64F WCI  24
SARATOGA       CLOUDY    34  30  86 W30G37    29.64F FOG     WCI  20
LARAMIE        CLOUDY    37  27  67 W28G37    29.57F WCI  25
CHEYENNE       FAIR      44  27  51 W39G49    29.51F
TORRINGTON     PTSUNNY  N/A N/A N/A W24G32    29.45F
PINE BLUFFS    CLOUDY    45  28  53 W15G23    29.54F

$$


USA.gov is the U.S. government's official web portal to all federal, state and local government web resources and services.